Location: Unspecified
(40.7945°N, 0.0000°E)
Time: 22:48:03
(UTC+00:00)

Courier 1B - Pass Details

Date: 30 January 2021
Orbit: 962 x 1209 km, 28.3° (Epoch: 26 February)

Event Time Altitude Azimuth Distance (km) Brightness Sun altitude
Rises 22:17:03 0° 246° (WSW) 3,895 - -55.8°
Reaches altitude 10° 22:20:15 10° 236° (SW) 2,895 - -56.3°
Maximum altitude 22:26:06 28° 179° (S) 1,803 - -57.1°
Drops below altitude 10° 22:31:41 10° 122° (ESE) 2,756 - -58.0°
Sets 22:34:39 0° 111° (ESE) 3,678 - -58.4°
